Location: Washington
(38.8950°N, 77.0370°W)
Time: 15:38:13
(UTC-05:00)

IDEFIX/ARIANE 42P - Visible Passes

Search period start: 20 January 2018 00:00
Search period end: 30 January 2018 00:00
Orbit: 786 x 802 km, 98.2° (Epoch: 18 January)

Date Brightness Start Highest point End Pass type
(mag) Time Alt. Az. Time Alt. Az. Time Alt. Az.
20 Jan 3.5 04:56:47 10° NNE 05:01:53 48° E 05:06:57 10° S visible
20 Jan 3.7 06:37:16 10° NNW 06:41:07 21° WNW 06:44:57 10° WSW visible
20 Jan 5.6 17:56:06 10° SW 17:59:03 15° W 18:02:02 10° NW visible
21 Jan 4.6 04:29:02 10° NE 04:33:25 26° E 04:37:44 10° SSE visible
21 Jan 3.1 06:08:14 10° N 06:13:03 37° WNW 06:17:49 10° SW visible
22 Jan 5.4 04:02:11 10° ENE 04:04:49 14° E 04:07:25 10° ESE visible
22 Jan 2.5 05:39:36 10° N 05:44:51 67° WNW 05:50:04 10° SSW visible
23 Jan 2.9 05:11:17 10° NNE 05:16:33 67° E 05:21:46 10° S visible
23 Jan 4.1 06:52:34 10° NNW 06:55:33 15° WNW 06:58:32 10° W visible
23 Jan 6.1 18:13:09 10° W 18:13:52 10° W 18:14:35 10° W visible
24 Jan 4.0 04:43:18 10° NNE 04:48:08 36° E 04:52:56 10° SSE visible
24 Jan 3.4 06:23:11 10° N 06:27:33 27° WNW 06:31:54 10° WSW visible
24 Jan 5.4 17:41:24 10° SW 17:45:13 20° W 17:49:04 10° NW visible
25 Jan 5.0 04:15:51 10° NE 04:19:36 19° E 04:23:20 10° SE visible
25 Jan 2.7 05:54:21 10° N 05:59:26 48° WNW 06:04:28 10° SW visible
26 Jan 2.5 05:25:53 10° NNE 05:31:12 88° W 05:36:27 10° SSW visible
27 Jan 3.4 04:57:42 10° NNE 05:02:50 50° E 05:07:55 10° S visible
27 Jan 3.8 06:38:16 10° NNW 06:42:02 20° WNW 06:45:46 10° WSW visible
27 Jan 5.7 17:57:12 10° WSW 18:00:00 14° W 18:02:49 10° WNW visible
28 Jan 4.5 04:29:56 10° NE 04:34:22 27° E 04:38:45 10° SSE visible
28 Jan 3.1 06:09:12 10° N 06:13:57 35° WNW 06:18:41 10° SW visible
29 Jan 5.4 04:02:58 10° ENE 04:05:46 14° E 04:08:34 10° ESE visible
29 Jan 2.5 05:40:34 10° N 05:45:47 64° WNW 05:50:58 10° SSW visible
